Regional Weather Roundup
Issued by NWS Goodland, KS

Home | Current Version | Previous Version | Text Only | Print | Product List | Glossary Off
Versions: 1 2 3 4 5 6 7 8 9 10 11 12 13 14 15 16 17 18 19 20 21 22 23 24 25 26 27 28 29 30 31 32 33 34 35 36 37 38 39 40 41 42 43 44 45 46 47 48 49 50

000
ASUS43 KGLD 250359
RWRGLD

GOODLAND FORECAST AREA HOURLY WEATHER ROUNDUP
NATIONAL WEATHER SERVICE GOODLAND KS
1000 PM MDT MON APR 24 2017

...OFFICIAL OBSERVATIONS...

CITY           SKY/WX    TMP DP  RH WIND       PRES   REMARKS
GOODLAND KS    CLOUDY    55  43  63 E8        29.51S
HILL CITY KS   CLOUDY    61  46  57 E9        29.51F
IMPERIAL NEB   CLOUDY    54  44  69 N8        29.56S
MCCOOK NEB     PTCLDY    56  43  61 NE8       29.53R
AKRON CO       CLOUDY    48  43  82 NE9       29.56F
BURLINGTON CO  NOT AVBL
LIMON CO       CLOUDY    53  37  54 N7        29.55F
$$

...UNOFFICIAL OBSERVATIONS...

CITY           SKY/WX    TMP DP  RH WIND       PRES   REMARKS
LENORA KS        N/A     61  32  33 MISG        N/A
NORTON KS      CLEAR     57  41  54 NE12      29.51S
SHARON SPRINGS   N/A     60  46  59 E8          N/A
TRENTON NEB      N/A     58  32  37 NE8         N/A
YUMA CO        CLOUDY    50  45  81 N8        29.55F
$$



USA.gov is the U.S. government's official web portal to all federal, state and local government web resources and services.